Total_Precipitation_Accumulation
1.67 1.58 1.29 1.48 2.03 1.57 1.72 1.43 1.49 1.54 1.36 1.16 1.18 1.19 0.97 0.81 0.82 0.93 0.91 0.94 1.09 0.97 0.94 0.96 0.94 1.07 1.51 1.65 1.56 1.91 2.43 2.59 2.47 1.70 1.46 1.36 1.32 1.26 1.21 1.02 0.89 0.75 0.74
1.58 1.69 1.46 1.61 2.24 2.20 1.83 1.80 1.59 1.64 1.57 1.17 0.99 0.96 1.01 1.00 0.98 1.05 1.25 1.19 1.04 1.11 1.08 1.15 1.04 1.03 1.14 1.45 1.84 1.79 1.93 2.39 2.78 2.41 1.98 1.75 1.46 1.06 0.77 0.53 0.37 0.26 0.29
0.82 1.33 1.59 1.68 1.89 2.23 2.08 1.92 1.73 1.60 1.52 1.37 1.14 1.05 0.91 0.82 0.90 0.97 1.01 1.03 1.13 1.10 1.07 1.00 0.98 1.13 1.35 1.49 1.86 2.34 2.18 1.86 1.89 1.84 1.50 1.17 0.92 0.59 0.42 0.34 0.24 0.15 0.12
0.78 0.73 1.03 1.39 1.37 1.49 1.89 1.93 1.94 1.75 1.63 1.43 1.30 1.22 1.15 0.81 0.71 0.68 0.64 0.72 0.80 0.91 0.88 0.91 0.85 0.94 0.90 0.97 1.07 1.10 1.45 1.59 1.25 1.14 1.10 1.03 0.88 0.65 0.51 0.39 0.41 0.30 0.22
1.21 1.01 0.92 1.01 1.25 1.24 1.42 1.72 1.89 1.70 1.80 1.81 1.56 1.24 1.22 1.22 1.05 0.83 0.62 0.67 0.76 0.91 1.01 0.97 0.96 0.96 0.94 0.77 0.78 0.79 0.90 1.31 1.79 1.75 1.28 1.00 0.90 0.94 0.89 0.50 0.37 0.31 0.26
1.12 1.07 0.97 0.86 0.84 0.96 0.99 1.16 1.50 1.76 1.56 1.84 1.92 1.64 1.24 1.27 1.74 1.31 0.96 0.84 0.81 0.75 0.76 0.74 0.73 0.86 0.69 0.72 0.64 0.57 0.71 0.94 1.33 1.79 1.71 1.05 0.70 0.67 0.77 0.90 0.74 0.58 0.47
1.09 0.98 1.03 1.07 0.86 0.82 0.94 0.99 1.23 1.45 1.78 2.01 2.17 2.08 2.11 1.85 2.06 1.96 1.59 1.08 0.91 0.79 0.66 0.63 0.59 0.51 0.56 0.42 0.57 0.60 0.67 0.83 0.84 0.84 1.02 0.86 0.71 0.69 0.97 1.09 1.02 0.81 0.42
1.35 1.41 1.52 1.19 1.26 1.02 1.16 1.50 1.67 1.79 2.07 2.07 2.05 2.16 2.32 2.06 1.96 1.83 1.74 1.31 0.93 0.62 0.58 0.42 0.35 0.34 0.36 0.47 0.51 0.81 0.69 0.51 0.47 0.57 0.60 0.54 0.71 0.75 1.13 1.36 1.30 1.20 0.90
1.25 1.51 1.75 1.71 1.86 1.96 1.79 1.68 1.90 1.80 1.77 1.80 1.67 1.69 1.69 1.66 1.54 1.47 1.43 1.38 1.26 0.68 0.32 0.37 0.34 0.31 0.43 0.63 0.70 0.83 0.71 0.51 0.41 0.54 0.70 0.74 0.89 1.12 1.35 1.64 1.70 1.69 1.53
1.35 1.32 1.30 1.60 1.88 1.96 1.94 1.89 1.70 1.47 1.55 1.37 1.36 1.36 1.51 1.38 1.54 1.25 1.22 1.27 1.31 1.34 0.71 0.37 0.55 0.36 0.43 0.66 0.70 0.65 0.62 0.51 0.49 0.51 0.59 0.69 0.78 0.78 1.07 1.18 1.36 2.00 1.77
1.07 1.49 1.50 1.43 1.43 1.33 1.41 1.39 1.37 1.22 1.09 1.08 1.06 1.04 1.19 1.32 1.27 1.32 1.37 1.36 1.25 1.21 1.45 0.80 0.47 0.64 0.57 0.51 0.52 0.48 0.58 0.51 0.67 0.77 0.68 0.63 0.74 0.81 0.79 0.86 0.97 1.51 1.93
0.53 0.58 0.77 0.67 0.74 0.79 0.85 0.86 0.82 0.84 0.86 0.86 0.87 0.92 0.89 0.94 1.15 1.23 1.21 1.31 1.49 1.35 1.27 1.39 1.09 1.06 0.78 0.52 0.40 0.46 0.66 0.78 0.64 0.61 0.77 0.75 0.69 0.75 0.72 0.75 0.83 1.08 1.22
0.22 0.14 0.18 0.23 0.36 0.43 0.53 0.57 0.62 0.61 0.65 0.69 0.76 0.77 0.75 0.78 0.99 1.09 1.02 1.12 1.24 1.28 1.22 1.50 1.81 1.68 1.16 0.87 0.69 0.57 0.53 0.51 0.62 0.68 0.58 0.61 0.59 0.59 0.77 0.98 0.93 0.74 0.83
0.27 0.18 0.09 0.19 0.26 0.24 0.33 0.39 0.48 0.48 0.50 0.46 0.55 0.65 0.66 0.69 0.79 1.00 0.94 1.00 1.11 1.21 1.36 1.50 1.41 1.39 1.39 1.12 1.15 1.06 0.78 0.61 0.67 0.78 0.69 0.63 0.73 0.84 0.76 0.86 1.14 1.04 1.15
0.22 0.21 0.22 0.22 0.20 0.19 0.23 0.36 0.47 0.57 0.83 0.89 0.95 0.90 0.90 0.89 0.97 1.25 1.24 1.25 1.15 1.23 1.33 1.20 1.32 1.08 1.15 1.16 1.05 1.07 1.19 1.18 1.14 0.98 1.16 1.11 1.02 0.93 0.98 0.88 1.07 1.31 1.46
0.46 0.34 0.44 0.34 0.28 0.26 0.26 0.27 0.34 0.42 0.58 0.63 0.75 0.95 0.94 1.05 1.09 1.03 1.04 1.12 1.37 1.46 1.29 1.06 1.07 1.13 1.10 1.19 1.09 1.23 1.43 1.55 1.40 1.40 1.34 1.41 1.40 1.22 1.17 1.13 1.09 1.16 1.25
0.69 0.67 0.58 0.45 0.38 0.37 0.34 0.36 0.41 0.48 0.48 0.42 0.50 0.57 0.60 0.57 0.65 0.74 0.84 0.99 1.08 1.32 1.08 0.91 0.98 1.24 1.33 1.32 1.39 1.49 1.35 1.30 1.54 1.84 1.77 1.54 1.52 1.41 1.57 1.36 1.25 1.29 1.06
0.62 0.71 0.61 0.52 0.53 0.51 0.44 0.41 0.39 0.44 0.49 0.51 0.58 0.63 0.60 0.67 0.73 0.73 0.80 0.79 0.86 0.94 0.89 0.82 0.92 1.11 1.42 1.51 1.56 1.63 1.58 1.44 1.43 1.44 1.64 1.59 1.61 1.63 1.44 1.21 1.27 1.41 1.34
0.83 0.84 0.73 0.58 0.59 0.57 0.47 0.48 0.47 0.44 0.40 0.39 0.44 0.58 0.62 0.78 0.79 0.75 0.75 0.66 0.65 0.68 0.80 0.98 0.92 1.10 1.45 1.63 1.63 1.63 1.71 1.46 1.37 1.39 1.39 1.51 1.49 1.76 1.49 1.18 1.22 1.48 1.63
0.79 0.96 0.81 0.67 0.65 0.55 0.45 0.44 0.45 0.41 0.38 0.37 0.35 0.50 0.66 0.78 0.70 0.66 0.63 0.55 0.56 0.71 0.83 1.00 1.14 1.15 1.32 1.62 1.73 1.82 1.82 1.61 1.32 1.18 1.11 1.32 1.42 1.65 1.68 1.44 1.36 1.38 1.19
0.89 1.01 1.02 0.79 0.67 0.55 0.43 0.44 0.42 0.45 0.46 0.43 0.40 0.67 1.02 0.86 0.72 0.76 0.75 0.69 0.76 0.82 0.87 0.94 1.03 1.18 1.24 1.43 1.63 1.80 1.82 1.64 1.44 1.48 1.41 1.26 1.35 1.48 1.26 1.41 1.41 1.35 1.32
1.15 1.08 1.06 0.87 0.74 0.65 0.57 0.51 0.54 0.58 0.58 0.58 0.59 0.74 0.95 0.85 0.73 0.76 0.66 0.60 0.64 0.74 0.83 0.96 0.98 1.08 1.38 1.55 1.65 1.72 1.65 1.62 1.57 1.65 1.65 1.46 1.38 1.36 1.30 1.41 1.50 1.52 1.42
1.25 1.08 1.03 1.05 0.97 0.92 0.85 0.66 0.69 0.77 0.78 0.70 0.63 0.65 0.78 0.83 0.70 0.60 0.56 0.56 0.62 0.60 0.62 0.79 0.98 1.06 1.08 1.34 1.53 1.81 1.88 1.60 1.80 2.07 2.08 1.73 1.60 1.58 1.55 1.60 1.52 1.57 1.31
1.23 1.15 1.09 1.12 1.09 1.04 1.01 1.08 1.04 0.99 0.91 0.84 0.81 0.75 0.71 0.73 0.70 0.56 0.50 0.55 0.59 0.57 0.61 0.78 1.11 1.36 1.38 1.44 1.53 1.62 1.80 1.84 2.20 2.42 2.77 2.75 2.01 1.67 1.68 1.54 1.30 1.32 1.27
1.12 1.12 1.13 1.25 1.31 1.24 1.13 1.08 0.95 0.89 0.88 0.80 0.78 0.70 0.65 0.62 0.58 0.52 0.48 0.51 0.60 0.67 0.66 0.73 0.96 1.20 1.35 1.46 1.57 1.63 1.94 2.07 2.24 2.43 2.46 2.40 2.02 1.58 1.56 1.54 1.31 1.25 1.23
0.98 0.99 1.07 1.01 0.98 1.01 0.97 0.90 0.83 0.80 0.83 0.83 0.77 0.67 0.62 0.59 0.56 0.56 0.54 0.54 0.54 0.56 0.58 0.60 0.71 0.86 0.96 1.08 1.27 1.44 1.48 1.56 1.75 1.86 2.21 2.47 2.19 1.91 1.69 1.62 1.41 1.41 1.17